CAPE
0 0 0 0 14 0 9 47 68 64 86 52 0 3 2 0 8 197 611 0 0 506 833 989 785 370 241 328 211 182 242 245 197 199 317 486 648 673 613 573 617 773 699 633 536 435 381 357 334
0 0 0 0 8 8 0 0 177 172 43 63 3 1 123 369 435 566 281 0 0 520 758 1019 799 521 252 381 192 163 285 227 262 251 402 573 537 694 788 800 788 784 628 418 287 235 213 199 179
0 0 0 0 0 0 0 1 110 110 74 176 268 85 350 617 686 738 88 0 35 545 833 1326 851 666 246 388 227 206 330 325 328 479 535 705 769 802 806 841 779 696 463 304 130 70 40 29 37
0 0 0 0 0 0 0 0 0 31 152 144 367 350 705 772 741 480 0 0 155 673 1072 1205 819 644 295 294 400 279 424 350 456 601 762 784 736 738 765 781 729 539 384 168 47 0 0 0 0
0 0 0 0 0 0 0 6 2 2 51 388 397 457 816 881 580 202 2 18 62 627 916 1258 851 600 370 295 386 455 377 517 592 735 739 699 668 660 679 691 571 465 284 157 66 19 4 2 7
0 0 0 5 0 0 0 19 14 2 84 275 312 179 724 846 567 479 182 66 55 622 970 1281 981 852 332 273 345 508 463 474 502 733 734 661 539 574 610 563 488 401 279 172 140 117 62 16 0
0 0 0 0 0 0 0 37 234 172 161 383 231 114 681 813 733 406 212 4 97 589 1247 1092 985 936 445 429 415 481 554 437 600 713 681 655 535 510 500 494 454 341 250 217 214 201 118 27 0
0 0 0 0 0 0 0 8 157 147 190 297 302 372 770 733 690 216 20 0 114 413 610 713 707 371 301 222 475 527 458 458 600 685 734 694 613 486 361 433 178 279 327 290 282 258 156 149 143
0 0 0 0 0 0 0 0 83 111 118 450 640 607 647 532 123 0 0 0 4 91 334 342 180 116 87 89 278 315 392 425 568 451 471 520 319 339 310 297 414 383 329 263 209 184 226 273 400
0 0 0 0 0 0 0 0 3 55 235 462 764 504 183 8 0 0 0 0 0 0 0 58 133 123 112 112 162 161 222 221 243 266 399 292 328 501 477 439 277 78 96 60 58 125 232 544 1153
0 0 0 0 0 0 0 0 96 351 688 854 953 716 586 556 521 375 86 0 0 0 0 0 84 297 112 69 127 145 139 223 469 660 743 514 464 378 304 129 162 157 184 115 254 650 962 1105 1313
0 0 0 0 0 0 0 0 0 0 9 20 68 89 63 43 21 26 31 101 325 213 21 0 0 66 112 84 121 85 103 187 366 449 693 720 590 384 338 147 49 22 9 512 792 683 1089 1304 1337
0 0 0 0 0 0 0 0 0 0 0 0 0 0 0 0 0 0 0 0 0 25 219 646 69 144 97 245 17 67 63 59 110 310 480 523 367 282 255 87 71 26 99 402 788 922 1041 1111 1072
0 0 0 0 0 0 0 0 0 0 0 0 0 0 0 0 0 0 0 0 0 0 0 64 638 475 382 278 139 53 71 41 137 118 180 370 411 269 214 90 0 0 0 22 530 783 1034 991 929
0 0 0 0 0 0 0 0 0 0 0 0 0 0 0 0 0 0 0 0 0 0 0 0 0 0 48 715 436 257 109 26 19 39 189 359 405 314 366 89 0 0 0 31 488 737 811 893 864
0 0 0 0 0 0 0 0 0 0 0 0 0 0 0 0 0 0 0 0 0 0 0 0 0 0 0 0 691 467 236 154 60 2 12 108 261 321 264 92 4 0 0 0 0 378 687 714 748
0 0 0 0 0 0 0 0 0 0 0 0 0 0 0 0 0 0 0 0 0 0 0 0 0 0 0 0 0 508 711 553 388 114 50 40 107 124 159 61 23 50 92 75 295 324 604 525 753
0 0 0 0 0 0 0 0 0 0 0 0 0 0 0 0 0 0 0 0 0 0 0 0 0 0 0 0 0 148 533 884 1142 905 724 547 612 564 393 374 331 427 687 964 1115 1279 1022 1006 1228
0 0 0 0 0 0 0 0 0 0 0 0 0 0 0 0 0 0 0 0 0 0 0 0 0 0 0 0 0 0 0 0 133 264 715 913 1228 1222 1169 1124 1074 1231 1487 1496 1554 1677 1797 1789 1516
0 0 0 0 0 0 0 0 0 0 0 0 0 0 0 0 0 0 0 0 0 0 0 0 0 0 0 0 0 0 0 0 0 0 0 0 0 12 416 950 1816 1768 1851 1900 1990 2122 1933 1566 1590
0 0 0 0 0 0 0 0 0 0 0 0 0 0 0 0 0 0 0 0 0 0 0 0 0 0 0 0 0 0 0 0 0 0 0 0 0 0 2 3 17 416 1359 1408 1680 1917 1955 1893 1666
0 0 0 0 0 0 0 0 0 0 0 0 0 0 0 0 0 0 0 0 0 0 0 0 0 0 0 0 0 0 0 0 0 0 0 0 0 0 0 0 3 3 3 239 775 1319 1686 1716 1557
0 0 0 0 0 0 0 0 0 0 0 0 0 0 0 0 0 0 0 0 0 0 0 0 0 0 0 0 0 0 0 0 0 0 0 0 0 0 0 0 0 0 0 0 26 171 542 1332 1387
0 0 0 0 0 0 0 0 0 0 0 0 0 0 0 0 0 0 0 0 0 0 0 0 0 0 0 0 0 0 0 0 0 0 0 0 0 0 0 0 0 0 0 0 0 0 33 381 777
0 0 0 0 0 0 0 0 0 0 0 0 0 0 0 0 0 0 0 0 0 0 0 0 0 0 0 0 0 0 0 0 0 0 0 0 0 0 0 0 0 0 0 0 0 0 0 0 139
0 0 0 0 0 0 0 0 0 0 0 0 0 0 0 0 0 0 0 0 0 0 0 0 0 0 0 0 0 0 0 0 0 0 0 0 0 0 0 0 0 0 0 0 0 0 0 0 0
3 0 0 0 4 8 3 0 0 0 0 0 0 0 0 0 0 0 0 0 0 0 0 0 0 0 0 0 0 0 0 0 0 1 1 0 0 0 0 5 3 1 0 1 1 0 0 0 0
0 0 0 0 0 18 23 2 0 0 0 0 0 0 0 0 0 0 0 0 0 0 0 0 0 0 0 0 0 0 0 0 0 0 2 4 2 1 2 4 5 6 3 7 6 1 0 0 0
0 0 0 1 3 38 38 5 0 0 0 0 0 0 0 0 0 0 0 0 0 0 0 0 0 0 0 0 0 0 0 0 0 1 3 5 3 3 4 2 3 6 6 6 6 4 7 0 0
0 0 0 7 53 38 29 10 0 0 0 0 0 0 0 0 0 0 0 0 0 0 0 0 0 0 0 0 0 0 0 0 1 0 1 3 3 3 6 3 5 6 6 5 4 4 4 7 0
CIN
-0 -0 -0 -0 -24 -3 -40 -37 -62 -48 -37 -70 -0 -16 -10 -0 -8 -26 -232 -0 -0 -149 -121 -82 -111 -165 -181 -153 -178 -172 -157 -143 -146 -136 -101 -57 -21 -20 -21 -34 -35 -22 -31 -38 -41 -50 -60 -69 -73
-0 -0 -0 -0 -3 -1 -0 -0 -22 -31 -38 -69 -58 -14 -36 -34 -97 -192 -243 -0 -0 -154 -122 -73 -101 -130 -181 -139 -192 -203 -151 -171 -146 -136 -98 -57 -50 -32 -19 -20 -29 -30 -43 -62 -83 -93 -103 -102 -113
-0 -0 -0 -0 -0 -0 -0 -35 -47 -42 -65 -42 -36 -85 -46 -62 -146 -140 -323 -0 -206 -158 -128 -50 -105 -118 -206 -157 -200 -210 -167 -168 -151 -111 -94 -64 -39 -24 -23 -21 -32 -40 -66 -98 -153 -171 -185 -188 -184
-0 -0 -0 -0 -0 -0 -0 -0 -0 -52 -48 -61 -34 -36 -115 -187 -142 -213 -0 -0 -228 -150 -116 -94 -140 -159 -224 -205 -161 -200 -163 -172 -138 -111 -83 -66 -64 -53 -38 -32 -37 -67 -98 -147 -199 -0 -0 -0 -0
-0 -0 -0 -0 -0 -0 -0 -34 -45 -31 -55 -43 -55 -37 -82 -183 -231 -273 -116 -279 -227 -131 -122 -90 -146 -173 -219 -225 -176 -154 -185 -142 -124 -96 -97 -93 -90 -82 -69 -60 -79 -105 -136 -169 -207 -222 -56 -59 -242
-0 -0 -0 -2 -0 -0 -0 -43 -40 -44 -42 -51 -40 -52 -90 -143 -144 -153 -193 -187 -202 -77 -69 -42 -74 -82 -184 -206 -186 -134 -164 -166 -161 -104 -109 -128 -141 -114 -98 -102 -121 -129 -155 -176 -190 -198 -210 -249 -0
-0 -0 -0 -0 -0 -0 -0 -53 -24 -18 -17 -24 -47 -28 -59 -71 -94 -118 -120 -48 -125 -42 -14 -23 -35 -43 -117 -125 -138 -140 -136 -188 -136 -108 -117 -119 -141 -145 -138 -132 -147 -158 -182 -177 -180 -195 -215 -247 -0
-0 -0 -0 -0 -0 -0 -0 -21 -57 -13 -29 -28 -57 -15 -5 -123 -136 -156 -193 -0 -164 -71 -37 -27 -47 -104 -130 -169 -141 -114 -126 -128 -113 -106 -101 -112 -126 -155 -180 -161 -203 -177 -162 -168 -170 -192 -213 -213 -181
-0 -0 -0 -0 -0 -0 -0 -0 -38 -49 -8 -80 -137 -118 -160 -164 -177 -0 -0 -0 -26 -191 -108 -64 -113 -153 -166 -134 -130 -168 -172 -174 -139 -179 -165 -146 -107 -62 -103 -105 -127 -148 -167 -179 -186 -201 -178 -154 -99
-0 -0 -0 -0 -0 -0 -0 -0 -176 -64 -68 -31 -128 -187 -230 -115 -0 -0 -0 -0 -0 -0 -0 -182 -153 -175 -174 -189 -169 -187 -159 -149 -142 -134 -115 -132 -87 -57 -89 -109 -166 -239 -229 -243 -226 -187 -150 -86 -2
-0 -0 -0 -0 -0 -0 -0 -0 -209 -68 -99 -51 -51 -89 -109 -121 -106 -85 -139 -0 -0 -0 -0 -0 -222 -169 -202 -152 -150 -150 -157 -137 -111 -105 -92 -95 -81 -89 -87 -102 -81 -94 -123 -83 -71 -30 -5 -0 -1
-0 -0 -0 -0 -0 -0 -0 -0 -0 -0 -329 -278 -278 -249 -284 -361 -334 -354 -267 -230 -137 -69 -11 -0 -0 -261 -224 -161 -180 -179 -164 -129 -113 -103 -112 -114 -114 -102 -107 -97 -105 -137 -136 -61 -35 -15 -6 -10 -3
-0 -0 -0 -0 -0 -0 -0 -0 -0 -0 -0 -0 -0 -0 -0 -0 -0 -0 -0 -0 -0 -197 -233 -75 -203 -237 -257 -208 -247 -179 -185 -186 -169 -136 -117 -117 -117 -121 -118 -123 -128 -124 -100 -58 -25 -16 -8 -9 -2
-0 -0 -0 -0 -0 -0 -0 -0 -0 -0 -0 -0 -0 -0 -0 -0 -0 -0 -0 -0 -0 -0 -0 -97 -102 -148 -176 -229 -260 -248 -231 -237 -215 -195 -187 -176 -150 -153 -151 -150 -0 -0 -3 -65 -46 -17 -9 -6 -2
-0 -0 -0 -0 -0 -0 -0 -0 -0 -0 -0 -0 -0 -0 -0 -0 -0 -0 -0 -0 -0 -0 -0 -0 -0 -0 -404 -187 -238 -279 -270 -278 -314 -260 -223 -210 -198 -185 -190 -180 -0 -0 -0 -44 -73 -55 -40 -31 -14
-0 -0 -0 -0 -0 -0 -0 -0 -0 -0 -0 -0 -0 -0 -0 -0 -0 -0 -0 -0 -0 -0 -0 -0 -0 -0 -0 -0 -232 -255 -289 -316 -329 -241 -330 -285 -228 -213 -209 -214 -107 -0 -0 -0 -0 -87 -49 -33 -22
-0 -0 -0 -0 -0 -0 -0 -0 -0 -0 -0 -0 -0 -0 -0 -0 -0 -0 -0 -0 -0 -0 -0 -0 -0 -0 -0 -0 -0 -295 -206 -238 -265 -325 -327 -324 -301 -273 -253 -239 -238 -193 -172 -155 -104 -92 -60 -67 -55
-0 -0 -0 -0 -0 -0 -0 -0 -0 -0 -0 -0 -0 -0 -0 -0 -0 -0 -0 -0 -0 -0 -0 -0 -0 -0 -0 -0 -0 -453 -284 -158 -106 -142 -161 -191 -170 -174 -210 -179 -165 -152 -100 -65 -43 -30 -23 -29 -24
-0 -0 -0 -0 -0 -0 -0 -0 -0 -0 -0 -0 -0 -0 -0 -0 -0 -0 -0 -0 -0 -0 -0 -0 -0 -0 -0 -0 -0 -0 -2 -0 -463 -389 -206 -140 -83 -65 -69 -70 -58 -45 -31 -19 -12 -10 -11 -19 -1
-0 -0 -0 -0 -0 -0 -0 -0 -0 -0 -0 -0 -0 -0 -0 -0 -0 -0 -0 -0 -0 -0 -0 -0 -0 -0 -0 -0 -0 -0 -0 -0 -0 -0 -0 -0 -0 -291 -257 -144 -7 -1 -1 -10 -5 -3 -1 -2 -7
-0 -0 -0 -0 -0 -0 -0 -0 -0 -0 -0 -0 -0 -0 -0 -0 -0 -0 -0 -0 -0 -0 -0 -0 -0 -0 -0 -0 -0 -0 -0 -0 -0 -0 -0 -0 -0 -0 -0 -0 -236 -229 -44 -38 -26 -1 -12 -1 -2
-0 -0 -0 -0 -0 -0 -0 -0 -0 -0 -0 -0 -0 -0 -0 -0 -0 -0 -0 -0 -0 -0 -0 -0 -0 -0 -0 -0 -0 -0 -0 -0 -0 -0 -0 -0 -0 -0 -0 -0 -0 -0 -0 -213 -144 -17 -2 -3 -5
-0 -0 -0 -0 -0 -0 -0 -0 -0 -0 -0 -0 -0 -0 -0 -0 -0 -0 -0 -0 -0 -0 -0 -0 -0 -0 -0 -0 -0 -0 -0 -0 -0 -0 -0 -0 -0 -0 -0 -0 -0 -0 -0 -0 -489 -301 -140 -27 -5
-0 -0 -0 -0 -0 -0 -0 -0 -0 -0 -0 -0 -0 -0 -0 -0 -0 -0 -0 -0 -0 -0 -0 -0 -0 -0 -0 -0 -0 -0 -0 -0 -0 -0 -0 -0 -0 -0 -0 -0 -0 -0 -0 -0 -0 -0 -264 -190 -51
-0 -0 -0 -0 -0 -0 -0 -0 -0 -0 -0 -0 -0 -0 -0 -0 -0 -0 -0 -0 -0 -0 -0 -0 -0 -0 -0 -0 -0 -0 -0 -0 -0 -0 -0 -0 -0 -0 -0 -0 -0 -0 -0 -0 -0 -0 -0 -0 -248
-0 -0 -0 -0 -0 -1 -0 -0 -0 -0 -0 -0 -0 -0 -0 -0 -0 -0 -0 -0 -0 -0 -0 -0 -0 -0 -0 -0 -0 -0 -0 -0 -0 -0 -0 -0 -0 -0 -0 -0 -0 -0 -0 -0 -0 -0 -0 -0 -2
-0 -0 -0 -0 -18 -12 -23 -0 -0 -0 -0 -0 -0 -0 -0 -0 -0 -0 -0 -0 -0 -0 -0 -0 -0 -0 -0 -0 -0 -0 -0 -0 -1 -1 -1 -0 -1 -0 -0 -0 -1 -1 -2 -2 -1 -0 -0 -0 -0
-0 -0 -1 -0 -0 -7 -45 -44 -0 -0 -0 -0 -0 -0 -0 -0 -0 -0 -0 -0 -0 -0 -0 -0 -0 -0 -0 -0 -0 -0 -0 -0 -0 -1 -1 -0 -0 -1 -1 -0 -0 -0 -0 -1 -0 -0 -0 -0 -0
-0 -0 -0 -5 -10 -6 -8 -16 -0 -0 -0 -0 -0 -0 -0 -0 -0 -0 -0 -0 -0 -0 -0 -0 -0 -0 -0 -0 -0 -0 -0 -0 -0 -1 -0 -1 -0 -0 -0 -0 -1 -0 -0 -0 -0 -1 -0 -1 -0
-0 -0 -0 -13 -5 -9 -23 -9 -0 -0 -0 -0 -0 -0 -0 -0 -0 -0 -0 -0 -0 -0 -0 -0 -0 -0 -0 -0 -0 -0 -0 -1 -1 -1 -1 -1 -1 -0 -0 -1 -0 -0 -0 -1 -0 -0 -0 -0 -0
Wind_Speed
14 13 13 14 15 12 12 10 15 19 16 12 12 12 14 15 16 14 14 17 20 21 22 22 21 21 21 21 22 22 23 24 24 25 26 26 27 28 28 28 28 28 28 27 26 26 26 25 23
17 15 14 14 11 12 15 12 14 16 10 11 13 13 14 15 16 16 16 18 21 19 21 20 21 21 21 21 21 22 22 23 24 24 25 26 26 27 27 27 27 26 26 25 24 24 21 17 15
18 17 14 14 14 15 15 14 12 13 11 11 11 13 14 15 16 15 15 20 19 18 18 19 20 20 20 20 20 21 22 22 23 23 24 24 25 25 25 25 24 24 23 22 22 19 15 12 11
19 11 14 12 18 16 16 14 13 13 13 13 13 15 15 14 12 15 19 20 20 19 18 19 19 19 19 19 19 20 21 21 22 22 23 23 23 23 23 22 22 21 20 19 17 14 12 11 10
21 9 13 14 17 17 15 14 15 17 13 13 13 15 16 16 18 19 19 19 18 18 17 19 18 18 18 18 18 18 19 20 21 21 21 21 21 21 21 20 19 19 18 17 16 13 12 11 11
17 11 13 11 16 17 15 12 12 14 13 15 15 15 17 17 17 15 15 15 14 13 12 14 14 15 15 16 16 16 18 19 20 21 20 20 19 19 19 18 18 17 16 15 14 13 12 11 10
19 11 8 11 14 16 16 13 12 11 13 15 13 15 14 16 15 13 11 10 9 9 9 9 10 11 12 11 12 14 16 17 19 19 18 18 18 18 17 16 16 15 14 14 13 12 12 11 11
25 11 8 9 13 15 16 14 12 12 13 13 16 14 14 15 14 12 10 9 8 8 9 9 10 11 11 11 11 11 12 19 20 19 18 17 17 17 17 16 15 14 14 13 13 13 13 12 12
16 12 12 8 10 13 17 13 10 11 13 16 16 17 16 15 16 16 14 11 9 9 9 10 9 11 11 10 10 10 13 21 21 19 18 18 17 16 16 14 16 17 16 15 16 15 14 14 12
7 12 11 7 11 17 14 14 12 9 13 15 17 17 18 17 16 15 14 11 11 10 10 13 13 12 11 11 11 8 8 21 20 19 19 19 18 19 19 19 16 16 16 16 16 14 15 13 13
5 4 4 4 15 14 10 12 13 9 15 16 15 17 16 16 17 16 15 14 13 12 11 11 13 15 17 15 15 17 21 23 21 22 21 21 22 20 19 19 15 12 8 18 10 11 13 21 18
8 5 12 11 11 9 8 11 13 14 12 14 16 17 17 18 18 17 17 16 15 14 14 13 13 13 15 17 19 20 22 23 23 24 25 24 24 23 23 23 23 9 10 20 11 23 22 22 13
6 7 9 6 5 7 9 11 9 12 12 14 16 18 18 17 18 18 17 16 15 15 16 17 14 14 14 10 11 11 18 22 22 22 20 22 21 23 26 26 26 26 26 23 20 23 24 23 12
4 6 4 2 3 4 7 10 9 12 12 14 15 17 18 18 19 18 19 18 17 17 17 18 16 16 16 13 12 11 12 16 16 19 20 15 14 13 15 18 23 27 26 26 22 21 25 24 23
4 1 1 9 3 2 5 14 11 11 12 12 14 16 17 18 19 20 19 18 18 18 18 18 18 19 19 20 7 6 10 10 12 13 12 12 12 11 14 17 18 19 24 23 20 21 22 19 20
3 6 7 13 8 15 8 12 12 12 11 12 14 15 16 18 19 20 19 19 19 19 20 20 21 22 22 23 20 10 9 10 11 11 11 10 9 10 14 16 17 16 16 18 20 22 24 23 21
8 9 10 12 14 12 11 8 11 11 11 12 14 16 16 17 20 21 21 21 21 21 21 22 23 24 24 24 24 21 14 12 12 11 10 9 7 6 8 12 15 18 18 19 20 19 19 23 23
12 12 13 12 12 6 6 7 9 11 11 12 14 15 16 19 21 22 21 22 22 22 23 23 24 26 26 25 26 22 22 22 19 18 14 15 13 9 9 11 14 15 18 19 20 21 21 21 22
18 14 11 6 5 10 8 8 9 11 12 13 15 16 18 20 21 22 23 23 24 24 25 25 27 27 27 27 27 25 26 28 28 26 27 28 26 23 19 18 18 16 17 20 22 19 20 20 21
13 9 7 9 9 9 7 11 10 11 13 15 17 18 19 20 21 23 24 24 25 26 26 28 29 30 30 29 28 25 32 29 32 30 32 31 33 31 29 30 25 23 24 23 25 25 27 26 21
12 11 11 13 8 7 5 14 14 12 12 14 16 17 19 21 23 24 25 25 26 27 28 28 29 30 31 32 29 28 26 25 29 35 33 33 36 33 32 32 31 30 28 28 28 31 28 29 31
12 12 8 5 10 19 12 20 15 13 15 16 18 19 21 21 22 23 25 26 27 27 28 29 30 30 31 32 31 32 31 33 33 33 34 36 33 34 34 34 34 34 30 32 26 26 21 28 31
15 9 9 9 12 16 11 21 10 12 15 17 16 18 19 21 22 24 25 26 27 28 29 29 31 31 32 32 33 33 33 34 34 36 38 37 36 37 36 36 38 37 37 38 35 37 39 40 28
16 4 7 12 16 25 15 17 17 12 13 15 17 19 20 21 23 24 25 26 27 29 30 30 32 32 33 34 34 35 36 38 38 39 39 38 39 38 37 39 40 41 40 41 41 41 37 33 46
6 6 15 20 21 26 14 18 19 12 13 16 18 20 21 23 24 26 27 28 29 31 32 32 34 35 35 36 37 37 38 39 41 41 42 43 41 41 42 43 42 42 42 43 43 43 40 38 35
14 14 23 24 25 21 17 24 19 13 14 16 18 19 22 24 25 26 28 29 30 32 33 34 35 36 36 37 38 38 39 40 40 42 43 44 44 45 46 47 46 46 45 44 44 44 45 43 41
16 21 28 33 25 26 16 20 18 13 14 16 18 20 22 23 24 26 27 29 30 32 33 34 35 35 36 37 37 38 40 41 43 44 45 45 46 47 47 48 49 49 49 47 47 45 46 45 43
22 18 24 24 34 34 24 24 26 14 15 17 18 20 22 23 24 26 27 29 30 31 32 33 35 36 36 37 37 38 41 42 43 44 45 45 46 48 49 49 48 48 47 47 47 46 46 46 45
19 23 25 27 27 34 36 24 18 14 15 16 18 20 21 23 25 26 28 29 31 32 33 33 34 35 36 37 38 39 40 43 44 45 46 47 48 49 50 51 52 52 52 51 50 49 50 50 48
22 25 25 30 28 30 35 28 14 13 12 14 16 19 22 24 25 27 29 30 31 32 33 33 34 35 36 37 37 38 40 43 45 46 47 47 49 48 49 51 52 53 53 52 52 54 51 52 53
Wind_Direction
273 257 221 185 168 129 333 239 174 108 100 260 270 275 305 298 303 308 71 80 101 101 105 105 97 98 94 89 86 86 87 87 86 88 88 89 92 91 93 98 98 97 96 97 97 98 99 104 107
275 267 212 211 236 307 354 304 6 11 298 269 255 256 290 321 326 11 59 93 105 97 103 101 99 97 95 92 89 90 90 89 92 91 92 93 96 96 100 104 103 102 101 101 103 107 121 137 141
274 261 198 222 292 334 329 338 315 353 313 277 308 288 296 305 323 5 48 97 96 93 95 96 96 95 97 95 94 94 96 95 96 94 99 97 101 104 107 108 108 107 108 109 114 130 156 172 168
273 34 127 188 345 349 325 298 280 292 337 280 298 340 336 311 271 25 80 95 97 94 98 97 98 98 97 98 98 98 98 99 100 101 103 104 106 109 115 114 116 120 124 131 142 158 177 185 184
242 79 154 31 359 335 315 307 269 215 301 320 289 340 333 340 21 60 77 89 89 88 93 101 98 96 96 99 99 98 99 101 105 110 107 110 111 114 117 122 130 123 127 139 145 172 186 188 180
181 313 139 13 357 345 333 294 284 272 346 350 342 349 352 24 30 35 59 65 64 64 60 75 75 79 81 90 90 97 100 104 112 126 115 116 119 123 133 135 131 131 130 147 167 164 177 194 199
182 137 113 10 349 357 330 314 292 301 329 355 328 350 356 15 17 21 29 16 20 17 22 11 31 37 45 51 70 89 104 106 133 140 129 136 135 142 151 152 146 150 148 153 168 173 188 198 210
240 132 91 50 350 350 321 297 287 306 342 345 321 336 355 13 25 32 20 7 360 325 12 20 19 46 56 64 59 68 81 154 187 183 178 178 177 173 173 171 156 161 174 175 183 194 201 207 214
276 145 133 53 40 339 334 317 306 310 9 13 11 19 23 35 45 44 35 20 7 339 333 323 357 28 23 31 44 77 109 196 204 181 178 192 190 180 179 164 199 216 212 210 217 215 216 217 207
148 150 135 354 319 313 358 347 305 16 358 10 15 28 42 44 37 32 19 2 10 3 332 293 292 303 324 343 341 55 65 194 190 187 192 188 199 217 229 239 202 203 206 212 211 201 210 201 218
168 168 71 36 302 328 328 358 353 8 6 2 15 30 33 29 27 23 13 359 6 351 342 326 305 292 275 291 291 274 251 233 195 202 202 211 232 216 214 214 198 172 121 219 147 181 186 282 251
284 191 283 302 327 357 0 28 18 14 9 7 16 22 28 29 24 16 11 359 337 334 338 327 324 313 295 281 274 263 245 244 242 235 233 236 235 234 235 240 252 199 167 310 189 265 311 296 14
277 287 272 320 36 25 21 20 19 0 3 12 19 19 17 17 20 14 5 352 343 337 323 308 331 332 328 350 343 334 288 275 279 283 293 284 293 291 265 268 261 272 278 304 318 302 310 317 5
271 301 313 153 315 345 2 350 318 342 3 11 12 11 13 10 11 10 6 353 343 336 326 321 320 322 322 337 340 344 330 312 308 301 301 318 321 329 325 318 304 289 291 294 313 319 313 320 327
281 215 334 294 240 163 331 326 318 335 349 353 2 8 8 3 6 7 357 351 346 342 329 329 318 314 313 300 24 35 346 341 329 324 327 326 325 329 323 320 318 317 306 310 316 319 320 327 329
281 260 241 299 273 291 284 298 315 316 329 333 341 350 353 358 359 3 349 344 337 333 334 327 322 315 311 308 317 351 352 345 337 337 333 329 327 323 320 319 319 321 322 318 315 313 312 316 321
277 270 239 282 289 285 283 285 313 321 326 331 337 342 343 346 351 355 347 346 333 328 323 325 324 322 316 315 312 319 333 336 337 338 338 338 333 325 322 322 319 317 316 315 314 315 315 314 315
273 274 285 288 307 288 284 290 307 321 326 327 330 335 338 339 338 341 335 343 337 330 328 322 321 323 322 317 311 316 320 319 325 322 328 327 328 329 323 322 320 317 315 313 312 311 312 313 314
289 283 279 283 289 300 280 286 304 312 317 318 324 326 331 335 338 340 344 332 334 329 328 327 327 320 322 316 312 306 305 304 309 317 314 310 313 314 316 314 314 312 311 311 311 311 309 309 310
285 273 274 300 295 286 273 282 298 309 311 314 316 321 327 332 335 338 341 338 336 327 326 327 328 325 325 323 317 319 301 303 297 306 306 307 304 310 311 309 309 308 307 309 309 306 303 302 303
272 260 262 279 290 288 267 284 284 295 310 319 324 329 331 331 331 335 336 336 336 334 328 328 327 330 332 327 327 330 327 326 320 302 308 311 306 308 308 306 305 304 305 307 310 302 297 298 295
275 271 257 235 269 283 236 287 275 281 294 306 316 323 327 333 335 335 334 334 334 335 335 331 330 330 331 331 329 325 322 317 318 315 314 313 313 311 307 306 302 298 307 305 314 305 299 294 294
288 267 241 234 269 292 248 288 288 278 286 300 316 325 330 335 337 337 333 333 333 335 334 332 332 332 332 331 330 326 323 320 318 315 313 314 312 310 307 305 301 299 302 301 302 299 293 288 292
294 257 267 276 278 281 271 269 288 276 281 299 311 319 324 329 332 333 333 333 332 333 334 333 333 333 332 331 329 326 323 321 319 318 316 315 313 312 309 307 305 301 300 299 297 295 294 294 282
280 210 281 278 272 281 283 281 295 297 298 302 307 315 320 324 326 328 328 328 328 328 329 330 331 330 332 331 329 328 325 322 319 318 316 314 312 310 308 307 305 304 302 300 296 293 290 289 289
268 244 272 280 278 277 284 284 288 292 302 307 311 316 321 323 327 328 329 329 329 329 329 330 331 331 332 333 332 330 329 326 322 320 317 313 311 307 307 305 304 303 301 300 298 295 290 288 284
274 265 279 281 290 288 288 296 298 291 297 306 311 316 319 324 329 331 332 332 332 332 333 332 332 332 333 334 335 334 332 329 324 322 319 316 313 310 309 306 303 301 298 298 296 294 291 289 286
278 293 280 276 276 277 283 291 293 278 288 300 307 314 320 324 327 330 331 332 333 334 334 334 333 332 332 332 333 334 335 334 330 327 323 321 317 314 311 309 307 305 302 299 296 293 291 288 286
288 280 282 285 288 282 281 294 310 292 295 301 310 315 319 323 326 330 331 332 333 333 334 334 335 334 333 334 333 332 331 333 332 329 325 322 319 317 313 310 307 305 302 299 296 292 289 286 284
292 287 288 281 280 283 285 291 306 310 314 315 317 320 322 324 326 328 327 332 333 332 334 335 335 335 335 335 336 336 334 334 335 333 330 327 323 322 317 314 309 306 304 301 296 293 289 285 283